Tracking 34408 objects as of 13-Jun-2026
HD Live streaming from Space Station
objects crossing your sky now

STARLINK-35628

Track STARLINK-35628 now!
10-day predictions
STARLINK-35628 is classified as:


NORAD ID: 66123
Int'l Code: 2025-237K
Perigee: 479.2 km
Apogee: 480.7 km
Inclination: 53.2 °
Period: 94.1 minutes
Semi major axis: 6850 km
RCS: Unknown
Launch date: October 22, 2025
Source: United States (US)
Launch site: AIR FORCE WESTERN TEST RANGE (AFWTR)
Your satellite tracking list
Your tracking list is empty




NASA's NSSDC Master Catalog

Two Line Element Set (TLE):
1 66123U 25237K   26164.11744291  .00499176  00000-0  15379-1 0  9997
2 66123  53.1587 316.1800 0001085 167.9995 192.1032 15.30997880 37220
Source of the keplerian elements: AFSPC